Wind_Speed
38 38 38 38 38 38 38 39 39 39 39 40 40 41 41 41 41 41 41 41 41 41 41 41 41 41 41 41 40 40 40 39 39 39 39 39 39 39 39 39 38 38 38 38 38 38 38 38 39 39 39 40
40 40 40 40 41 41 41 41 41 41 41 42 42 43 43 44 44 44 44 44 44 44 44 44 44 44 44 44 44 43 43 43 42 42 42 42 42 42 42 42 42 41 41 41 41 41 41 41 41 42 42 43
42 42 42 43 43 43 43 43 44 44 44 44 44 45 45 46 46 46 47 47 47 47 47 47 47 47 47 47 46 46 46 46 46 45 45 46 46 46 46 45 45 45 45 44 44 45 44 44 45 45 45 46
45 45 45 45 45 45 45 45 46 46 46 46 47 47 47 48 48 49 49 49 49 49 49 49 50 50 50 49 49 49 49 49 49 49 48 49 49 50 49 49 49 48 48 48 48 48 48 48 48 48 48 49
47 48 48 48 48 48 48 48 48 48 48 49 49 49 49 50 50 51 51 51 51 51 51 52 52 52 52 52 52 52 52 52 51 51 51 52 52 53 53 52 52 52 52 51 51 51 51 51 51 51 52 52
50 50 50 50 50 50 50 50 50 51 51 51 51 51 51 52 52 53 53 53 54 54 54 54 54 55 55 55 54 54 54 54 54 54 54 54 55 55 55 55 55 55 55 54 54 54 54 54 54 55 55 55
52 51 52 52 52 52 52 52 53 53 53 53 53 53 54 54 55 55 55 56 56 56 56 56 57 57 57 57 56 56 56 56 56 56 56 56 57 57 57 57 57 57 57 57 57 57 57 57 57 58 58 59
52 52 53 54 54 54 54 54 55 55 56 56 56 56 56 57 57 57 58 58 58 58 58 58 59 59 58 58 58 58 58 58 58 58 58 58 58 59 59 60 60 60 60 60 60 60 60 60 60 60 61 61
54 54 55 55 55 55 55 56 56 56 57 57 57 58 58 59 59 59 60 60 60 60 60 60 60 60 61 61 61 61 60 60 60 60 59 60 60 60 60 61 61 61 61 62 62 62 62 62 62 62 62 63
56 55 55 56 56 56 56 56 56 57 58 58 59 59 59 60 60 61 61 62 62 62 62 62 62 62 62 63 63 63 63 62 62 62 61 61 61 61 61 61 62 62 62 62 63 63 63 63 63 63 63 64
56 56 57 57 57 57 57 57 57 58 59 59 60 60 60 61 62 62 63 63 63 63 63 63 63 64 64 64 64 64 64 64 64 64 63 63 63 63 62 62 62 62 62 62 63 63 63 63 63 63 64 64
57 57 58 59 58 57 56 57 57 59 60 60 60 61 62 62 63 63 64 64 64 64 64 64 64 64 64 64 64 64 64 65 65 65 64 64 64 63 63 63 63 63 63 63 63 63 63 63 63 63 63 64
57 57 58 59 58 56 57 58 59 60 60 60 61 62 63 64 64 64 64 64 64 64 64 65 65 65 65 65 65 64 65 65 65 65 64 64 64 64 63 63 63 63 63 63 63 63 63 63 63 63 63 63
57 56 57 57 57 57 58 59 59 60 61 61 62 62 64 65 65 65 65 65 65 65 65 65 65 65 65 65 65 65 65 65 65 64 64 64 64 64 63 63 63 63 63 63 63 63 63 63 63 63 63 63
58 56 56 57 57 58 58 58 59 60 61 61 61 62 64 65 65 65 65 65 64 64 64 65 65 65 65 65 65 65 64 64 64 63 63 63 63 63 63 63 62 62 62 63 63 63 63 63 63 63 63 63
59 58 58 58 57 58 58 59 60 60 60 60 61 63 65 65 65 65 64 63 63 63 63 63 63 63 63 64 64 63 63 62 62 61 61 61 61 61 61 62 62 62 62 62 62 63 63 63 63 62 62 62
62 60 59 58 57 57 58 59 59 58 58 59 61 63 64 64 64 63 63 62 62 62 62 62 61 61 61 61 62 62 61 61 61 60 60 60 60 60 60 60 61 61 61 61 61 61 62 62 61 61 61 61
63 62 61 60 60 60 59 58 58 57 58 59 60 62 62 63 62 62 62 62 61 61 61 60 60 59 59 60 60 60 60 60 60 60 60 60 60 59 59 59 59 59 60 60 60 60 60 60 59 59 59 59
60 62 63 64 64 63 62 60 59 58 58 59 60 61 61 61 62 62 62 62 61 61 60 60 59 58 59 59 60 60 60 60 60 59 59 59 59 59 58 58 58 58 59 59 59 59 58 58 58 58 58 58
56 58 60 62 64 64 64 63 62 61 60 60 60 61 61 61 62 63 63 62 62 61 61 60 59 58 58 59 59 59 59 59 58 58 58 58 58 58 57 57 57 57 58 58 57 57 57 57 57 57 57 57
55 56 57 59 60 61 62 62 63 62 62 63 63 63 63 63 64 64 64 64 63 62 61 60 59 58 58 58 58 58 58 57 57 56 56 55 55 55 55 55 55 55 56 55 54 54 55 55 56 56 56 56
56 56 56 56 57 58 58 59 60 61 62 62 63 64 64 64 65 65 65 64 63 61 60 58 57 56 56 56 56 56 55 54 53 53 52 52 52 52 53 53 53 53 52 51 51 52 52 53 53 55 55 56
59 58 57 57 57 57 57 57 56 57 59 60 61 62 63 63 63 63 62 62 60 58 57 55 53 52 52 52 52 51 50 49 48 48 48 48 49 50 50 49 49 48 49 49 50 51 51 51 52 53 54 55
61 60 59 59 59 59 58 56 55 56 59 60 61 61 61 60 60 60 59 58 57 56 55 53 52 51 50 50 50 49 47 46 46 47 47 47 48 48 48 47 47 47 47 47 48 49 50 50 51 52 53 54
58 59 59 59 59 59 59 58 57 58 61 62 62 61 61 60 60 59 59 58 57 56 55 54 53 52 51 51 51 50 48 48 48 48 47 48 48 49 49 49 49 49 49 48 47 49 50 50 51 52 52 53
56 58 58 56 56 58 58 58 59 61 64 65 64 63 63 63 62 61 60 59 58 57 57 56 55 54 53 52 52 52 51 51 51 50 49 49 49 49 50 50 50 50 50 50 50 51 51 51 52 52 52 54
60 61 61 60 61 62 61 61 63 65 66 66 66 66 66 65 64 64 62 61 60 59 59 59 58 58 56 55 54 53 53 53 53 52 51 51 50 50 51 50 50 50 51 51 51 53 53 52 53 53 53 54
64 64 65 66 66 66 65 65 67 68 67 67 67 68 67 66 65 64 62 61 61 61 61 62 61 60 59 58 57 55 55 54 55 55 54 53 53 52 51 51 51 51 51 51 51 53 52 52 54 54 54 55
67 67 68 68 69 68 68 68 68 69 69 68 68 67 66 65 64 63 62 61 60 60 60 61 61 61 60 59 59 58 57 56 56 57 57 56 55 54 52 52 52 52 52 52 52 53 51 51 53 54 55 56
68 69 70 70 70 71 71 70 70 70 70 69 68 66 64 63 63 62 61 60 60 61 62 63 63 63 62 61 60 59 59 58 58 58 58 59 58 56 55 54 54 54 53 53 54 53 52 52 53 54 55 57
70 71 72 72 72 73 73 73 72 71 70 69 68 66 64 63 62 62 62 62 62 63 63 64 64 64 64 63 63 62 61 60 59 59 59 60 60 59 58 57 56 55 55 55 55 55 54 53 53 54 55 56
Wind_Direction
267 267 267 267 267 267 266 266 266 266 265 265 265 265 265 266 266 266 265 265 265 265 264 264 264 264 264 264 264 264 264 264 265 266 266 266 266 265 265 265 266 266 266 266 266 267 267 268 270 271 272 273
268 268 268 268 268 267 267 267 266 266 266 266 266 266 266 266 266 265 265 265 265 265 265 264 263 263 263 263 263 263 263 263 264 264 265 265 265 265 265 265 265 264 264 264 264 264 265 266 266 268 269 270
269 269 269 269 268 268 267 267 267 267 267 267 267 267 267 267 266 266 265 265 264 264 265 265 264 264 263 263 263 263 263 263 263 263 263 264 264 264 264 264 264 264 263 263 263 263 263 264 264 265 266 267
271 270 270 269 269 269 269 268 268 268 268 268 267 268 268 267 267 267 267 266 266 265 265 265 265 265 265 265 264 264 264 263 263 263 263 263 263 263 264 264 264 263 263 263 263 263 263 263 263 263 264 265
272 271 271 270 270 270 270 269 269 269 268 268 268 268 268 268 268 268 268 268 268 267 266 266 266 266 266 265 265 265 264 264 264 264 264 264 264 264 264 264 264 263 263 263 263 263 263 263 263 263 264 264
274 273 273 272 271 271 271 270 270 269 269 268 268 268 268 268 269 268 268 268 268 267 267 266 266 265 265 265 265 265 265 265 265 265 265 265 265 265 265 265 265 265 264 264 264 263 263 263 263 263 263 264
275 274 274 273 272 271 271 271 270 269 269 268 268 268 267 267 268 267 267 267 267 267 267 267 266 266 266 266 266 266 266 266 266 266 266 266 266 266 266 266 266 266 265 265 265 264 264 264 264 263 264 264
274 273 272 272 272 271 271 270 269 269 268 268 267 267 266 266 266 266 266 266 266 266 266 266 266 266 266 266 266 266 266 266 266 266 266 266 267 267 267 267 266 266 266 266 266 265 265 265 264 264 264 264
272 272 272 272 272 271 271 270 269 268 268 267 267 266 266 266 266 265 266 265 265 265 265 266 266 266 266 266 266 266 266 266 266 266 267 267 267 267 267 267 267 267 267 266 266 266 266 265 265 265 265 265
270 271 271 271 271 270 270 269 269 268 268 267 267 266 266 266 265 265 265 265 265 265 265 265 265 265 265 266 266 266 266 266 266 267 267 267 268 268 268 268 268 268 268 267 267 266 266 266 266 265 265 265
269 270 269 269 269 270 270 270 269 269 268 267 267 266 266 266 265 265 265 265 265 265 265 265 265 265 265 265 266 266 266 266 266 267 267 267 267 268 268 268 268 268 268 268 267 267 267 266 266 266 266 266
269 269 269 269 269 270 271 270 270 269 268 268 268 267 266 266 265 265 265 265 265 265 265 265 265 265 265 265 266 266 266 266 266 267 267 267 267 267 268 268 268 268 268 268 268 268 267 267 267 266 266 266
269 269 269 270 270 271 270 270 269 269 269 269 268 268 267 266 266 266 266 266 266 266 266 265 265 265 266 266 266 266 266 266 266 266 266 266 267 267 267 267 268 268 268 268 268 268 268 268 267 267 267 267
269 269 270 270 269 269 269 269 268 269 268 268 268 268 267 267 267 267 267 267 266 266 266 266 266 266 266 266 266 266 265 266 266 266 266 266 267 267 267 267 267 268 268 268 268 268 268 268 268 267 267 267
269 269 269 268 268 268 268 268 267 267 267 267 267 267 267 267 268 268 268 268 267 267 266 266 266 266 266 266 266 266 266 266 267 267 267 267 268 268 268 268 268 268 268 268 268 268 268 268 268 267 267 267
269 268 268 267 268 268 267 266 266 266 266 266 266 266 267 267 268 268 268 268 268 267 267 267 267 267 268 268 268 268 268 268 269 269 269 269 269 269 269 269 269 269 269 268 268 268 268 268 268 267 267 267
269 268 267 266 266 266 265 265 266 266 265 265 265 266 267 267 268 268 268 268 268 268 268 269 269 269 270 270 270 270 271 271 271 271 271 271 270 270 270 270 270 269 269 269 268 268 268 268 268 268 267 267
274 272 269 268 266 266 266 266 265 265 265 265 265 266 267 267 268 268 268 268 268 269 269 270 271 271 271 271 272 272 272 272 272 271 271 271 270 270 270 270 270 270 269 269 269 268 268 268 267 267 267 267
280 278 275 273 271 269 268 267 265 264 263 263 264 266 267 267 268 268 268 268 268 269 270 270 270 271 271 271 271 271 271 271 271 270 270 270 270 270 270 269 269 269 269 269 268 268 268 267 267 266 266 266
281 280 279 277 276 274 272 269 267 265 263 263 264 265 266 266 267 267 268 268 268 269 269 269 269 268 268 269 269 269 269 269 269 269 269 269 270 269 269 268 268 268 268 267 267 267 266 266 266 265 264 264
278 277 277 277 277 276 275 273 271 268 267 266 266 266 266 266 266 267 268 268 268 268 268 268 267 267 267 267 267 267 268 268 268 268 268 268 268 268 267 267 267 266 267 267 267 266 265 265 264 263 263 263
275 274 273 273 274 274 273 273 272 271 270 270 269 269 269 268 268 269 269 269 269 268 268 267 267 266 266 267 267 267 268 268 267 267 267 267 266 266 266 266 266 267 267 267 267 266 265 265 264 263 262 262
275 273 271 270 270 270 270 270 269 269 269 269 269 269 269 270 271 271 271 270 269 268 267 267 266 266 266 267 268 268 269 268 267 267 266 266 266 266 267 268 268 268 267 267 266 266 266 265 265 264 263 263
275 272 269 268 268 267 266 265 264 265 265 265 266 267 268 268 269 269 269 268 267 266 265 265 265 265 266 267 268 269 269 268 267 267 267 267 267 267 268 268 268 267 267 266 267 267 267 266 266 265 265 264
273 271 270 269 267 266 266 264 261 260 262 263 265 265 265 265 265 266 265 264 263 263 264 264 265 265 266 267 267 268 268 267 267 267 267 268 267 267 267 268 267 267 267 267 267 267 267 267 266 266 266 266
269 269 268 265 264 265 265 264 263 262 263 265 266 266 266 266 266 266 265 265 266 267 267 268 268 267 267 267 266 266 266 265 265 265 265 266 266 266 266 266 267 268 268 267 266 266 266 267 267 266 266 266
270 268 265 262 262 263 263 262 264 266 267 267 268 269 270 270 270 270 271 271 272 272 272 271 271 270 269 268 268 267 267 266 265 264 263 263 264 264 265 266 267 267 267 268 267 267 267 267 267 267 266 265
272 270 268 266 265 265 264 263 264 266 267 268 269 270 272 273 273 274 275 275 274 273 273 272 271 271 270 270 269 269 268 268 266 265 263 262 262 263 264 265 265 266 267 268 268 268 269 268 267 267 266 264
271 270 269 268 268 266 265 265 265 265 266 267 269 271 272 274 274 275 274 274 273 273 273 273 273 272 271 271 270 269 269 269 268 267 265 263 262 262 263 264 264 265 267 268 268 269 270 269 267 266 266 264
270 269 269 268 267 266 265 265 265 265 266 267 268 270 271 272 274 273 272 271 272 273 274 274 275 274 273 271 270 269 268 268 268 268 267 265 264 263 263 263 264 265 266 267 268 268 269 268 268 267 266 265
268 268 268 267 266 265 264 264 264 265 265 266 267 267 268 269 271 270 270 270 272 273 274 274 275 274 273 271 270 268 267 266 265 266 266 266 265 264 263 263 264 264 265 266 267 268 268 268 269 269 268 266
Height
5738 5737 5737 5736 5735 5735 5734 5734 5733 5733 5732 5732 5732 5731 5731 5731 5731 5731 5731 5731 5731 5730 5730 5730 5730 5730 5730 5730 5730 5730 5730 5730 5731 5731 5731 5731 5731 5731 5732 5732 5733 5733 5734 5734 5734 5734 5734 5734 5734 5734 5734 5734
5733 5732 5732 5731 5731 5730 5729 5729 5728 5728 5727 5727 5727 5726 5726 5726 5726 5726 5726 5726 5725 5725 5725 5725 5725 5725 5725 5725 5725 5725 5725 5725 5726 5726 5726 5726 5726 5726 5726 5727 5727 5728 5728 5729 5729 5729 5729 5729 5729 5729 5729 5729
5728 5727 5727 5726 5725 5725 5724 5724 5723 5723 5723 5722 5722 5722 5721 5721 5720 5720 5720 5720 5720 5720 5719 5719 5719 5719 5719 5719 5719 5720 5720 5720 5720 5720 5721 5720 5720 5720 5720 5721 5722 5722 5722 5723 5723 5723 5723 5724 5724 5723 5723 5723
5722 5721 5721 5720 5720 5719 5719 5718 5718 5718 5717 5717 5717 5716 5716 5715 5715 5715 5715 5715 5715 5714 5714 5714 5713 5713 5713 5713 5713 5714 5714 5714 5714 5715 5715 5714 5713 5713 5714 5715 5715 5716 5716 5716 5716 5717 5717 5717 5718 5717 5718 5717
5715 5715 5715 5714 5714 5714 5713 5713 5712 5712 5712 5711 5711 5711 5710 5710 5709 5709 5709 5709 5709 5708 5708 5708 5708 5707 5707 5707 5707 5707 5707 5708 5708 5708 5708 5708 5707 5707 5708 5708 5709 5709 5709 5710 5710 5710 5711 5711 5711 5711 5711 5711
5709 5709 5708 5708 5708 5707 5707 5707 5706 5706 5705 5705 5705 5705 5704 5704 5703 5703 5703 5702 5702 5702 5702 5702 5701 5701 5701 5700 5700 5701 5701 5701 5701 5701 5702 5701 5700 5700 5701 5702 5702 5702 5703 5703 5703 5704 5704 5705 5705 5705 5705 5705
5702 5702 5701 5701 5701 5700 5700 5700 5699 5699 5699 5699 5698 5698 5698 5697 5696 5696 5696 5695 5695 5695 5695 5695 5695 5694 5694 5694 5694 5694 5694 5695 5695 5695 5695 5694 5693 5694 5694 5694 5695 5695 5696 5696 5696 5697 5697 5698 5698 5698 5698 5698
5695 5694 5694 5693 5693 5693 5693 5692 5692 5692 5692 5691 5691 5691 5690 5690 5689 5689 5689 5688 5688 5688 5688 5688 5688 5688 5688 5688 5687 5687 5688 5688 5688 5688 5688 5688 5687 5687 5687 5687 5688 5688 5689 5689 5689 5690 5690 5691 5691 5691 5691 5691
5687 5687 5687 5686 5686 5685 5685 5685 5684 5684 5684 5684 5684 5683 5683 5683 5682 5682 5681 5681 5680 5680 5680 5681 5681 5681 5681 5680 5680 5680 5680 5680 5681 5681 5681 5681 5680 5680 5680 5681 5681 5681 5681 5682 5682 5683 5683 5684 5684 5684 5684 5684
5680 5680 5679 5679 5678 5677 5677 5677 5677 5676 5676 5676 5676 5675 5675 5675 5674 5674 5674 5673 5673 5673 5673 5673 5673 5673 5673 5673 5673 5673 5673 5673 5673 5674 5674 5674 5674 5673 5673 5673 5674 5674 5674 5675 5675 5676 5676 5676 5677 5677 5677 5677
5673 5672 5672 5671 5670 5670 5669 5669 5669 5668 5668 5668 5667 5667 5667 5667 5666 5666 5665 5665 5665 5665 5665 5665 5665 5665 5665 5665 5665 5665 5665 5665 5666 5666 5667 5667 5667 5666 5666 5666 5666 5666 5667 5667 5667 5668 5669 5669 5670 5670 5670 5670
5666 5665 5664 5663 5663 5662 5661 5662 5662 5660 5660 5660 5659 5659 5659 5658 5658 5657 5657 5657 5657 5657 5657 5657 5657 5657 5657 5657 5657 5657 5657 5657 5658 5659 5659 5659 5659 5659 5658 5658 5658 5659 5659 5659 5660 5660 5661 5662 5662 5663 5663 5663
5659 5658 5657 5656 5656 5655 5654 5655 5653 5652 5653 5652 5651 5651 5650 5650 5650 5649 5649 5649 5649 5649 5649 5648 5649 5649 5648 5648 5649 5649 5649 5649 5650 5650 5650 5650 5651 5651 5651 5651 5650 5651 5651 5652 5652 5653 5654 5654 5655 5656 5656 5656
5651 5650 5650 5649 5648 5647 5647 5647 5645 5645 5645 5643 5643 5642 5641 5641 5641 5641 5641 5641 5641 5641 5640 5640 5640 5640 5640 5640 5640 5640 5640 5641 5642 5642 5642 5642 5642 5643 5643 5643 5643 5643 5644 5644 5645 5645 5646 5647 5647 5648 5648 5648
5643 5643 5643 5641 5640 5639 5640 5639 5638 5638 5637 5636 5635 5634 5633 5633 5633 5632 5633 5632 5632 5632 5632 5632 5632 5632 5632 5631 5631 5632 5633 5633 5634 5635 5635 5635 5635 5635 5635 5635 5635 5635 5636 5636 5637 5638 5638 5639 5639 5640 5640 5640
5636 5636 5634 5633 5632 5632 5631 5630 5630 5630 5629 5628 5627 5625 5625 5625 5625 5625 5624 5624 5623 5623 5623 5623 5624 5624 5624 5623 5623 5624 5625 5626 5627 5627 5627 5627 5627 5627 5628 5628 5628 5628 5628 5629 5629 5630 5630 5631 5631 5632 5632 5632
5629 5628 5626 5625 5624 5623 5622 5622 5623 5623 5622 5620 5618 5617 5617 5617 5617 5617 5616 5616 5615 5615 5615 5616 5616 5617 5616 5615 5615 5617 5618 5619 5620 5620 5620 5620 5620 5620 5620 5620 5620 5620 5620 5621 5621 5622 5622 5623 5623 5624 5624 5624
5624 5622 5620 5618 5617 5616 5615 5614 5615 5615 5614 5612 5611 5610 5610 5610 5609 5609 5608 5608 5607 5607 5608 5609 5609 5610 5609 5608 5608 5610 5611 5611 5612 5612 5612 5612 5612 5612 5612 5612 5612 5612 5612 5613 5613 5614 5614 5615 5615 5615 5616 5616
5618 5616 5614 5612 5611 5609 5608 5607 5607 5607 5606 5604 5603 5603 5603 5602 5601 5600 5600 5600 5600 5600 5601 5601 5602 5602 5601 5600 5601 5602 5603 5603 5604 5604 5604 5604 5604 5605 5605 5604 5604 5604 5604 5605 5605 5606 5606 5606 5607 5607 5607 5608
5611 5610 5608 5606 5604 5603 5602 5600 5600 5599 5598 5596 5596 5595 5595 5594 5593 5592 5592 5592 5592 5592 5593 5593 5594 5594 5593 5593 5593 5594 5595 5596 5596 5596 5596 5596 5596 5596 5596 5596 5596 5596 5596 5596 5597 5598 5598 5598 5598 5599 5599 5600
5604 5603 5601 5600 5598 5597 5595 5594 5593 5591 5590 5589 5588 5588 5587 5586 5584 5584 5583 5583 5584 5584 5585 5585 5586 5586 5585 5585 5586 5586 5587 5588 5589 5589 5589 5589 5589 5588 5588 5588 5589 5588 5588 5589 5589 5589 5589 5590 5590 5590 5591 5592
5597 5595 5594 5593 5592 5590 5589 5587 5586 5585 5583 5582 5581 5580 5579 5578 5577 5576 5575 5575 5575 5576 5577 5578 5578 5578 5578 5578 5578 5579 5580 5581 5582 5582 5582 5582 5581 5581 5581 5581 5581 5581 5581 5581 5581 5581 5581 5582 5582 5582 5583 5584
5589 5588 5586 5585 5584 5583 5582 5580 5579 5578 5577 5576 5574 5573 5572 5571 5570 5569 5569 5568 5568 5569 5570 5571 5571 5571 5571 5571 5571 5572 5574 5574 5574 5574 5574 5574 5574 5573 5574 5575 5575 5574 5574 5574 5574 5574 5574 5575 5575 5575 5576 5577
5581 5580 5578 5577 5575 5574 5573 5572 5572 5570 5569 5568 5567 5566 5565 5565 5564 5563 5563 5562 5562 5562 5563 5564 5564 5565 5565 5564 5565 5566 5567 5567 5567 5567 5567 5567 5567 5567 5567 5568 5568 5567 5567 5567 5567 5567 5567 5567 5567 5568 5569 5570
5573 5572 5571 5569 5567 5566 5565 5564 5564 5562 5561 5560 5559 5559 5558 5558 5557 5556 5556 5555 5555 5555 5555 5556 5557 5557 5558 5557 5557 5558 5559 5559 5559 5560 5560 5560 5560 5559 5560 5560 5560 5559 5559 5560 5561 5560 5559 5560 5560 5561 5562 5562
5567 5566 5565 5564 5561 5559 5558 5557 5556 5554 5553 5552 5552 5551 5551 5550 5550 5549 5549 5549 5549 5549 5548 5549 5549 5549 5550 5550 5550 5551 5551 5551 5551 5552 5552 5552 5552 5552 5552 5552 5552 5552 5551 5552 5553 5552 5552 5553 5553 5554 5555 5555
5557 5557 5557 5556 5555 5553 5551 5550 5548 5547 5545 5544 5544 5543 5543 5543 5542 5542 5542 5542 5541 5541 5540 5540 5540 5541 5541 5542 5542 5543 5543 5544 5544 5544 5544 5544 5544 5544 5545 5545 5545 5544 5544 5545 5545 5544 5545 5546 5546 5547 5547 5547
5546 5546 5545 5545 5544 5543 5542 5541 5539 5538 5537 5537 5536 5535 5534 5534 5534 5533 5534 5533 5532 5532 5531 5531 5531 5532 5533 5533 5534 5534 5535 5536 5536 5536 5536 5536 5536 5537 5537 5538 5538 5537 5536 5537 5537 5536 5538 5539 5539 5539 5539 5539
5536 5535 5534 5533 5533 5532 5531 5530 5530 5529 5528 5527 5527 5527 5526 5525 5525 5524 5524 5523 5523 5523 5522 5522 5523 5523 5524 5525 5525 5526 5527 5528 5528 5528 5528 5528 5528 5529 5530 5530 5530 5530 5530 5530 5529 5528 5530 5532 5531 5532 5531 5531
5525 5525 5524 5523 5522 5521 5521 5520 5520 5519 5519 5518 5518 5518 5518 5517 5516 5516 5515 5515 5514 5514 5514 5514 5514 5515 5515 5516 5516 5517 5518 5518 5519 5520 5520 5520 5520 5521 5522 5521 5522 5523 5523 5522 5522 5521 5523 5524 5524 5524 5524 5523
5514 5514 5513 5512 5512 5511 5510 5510 5509 5509 5509 5509 5509 5509 5508 5508 5507 5507 5507 5507 5506 5506 5506 5506 5506 5506 5506 5507 5508 5508 5508 5509 5510 5510 5510 5511 5512 5513 5513 5513 5515 5516 5515 5514 5515 5514 5514 5516 5517 5517 5517 5516